Location: D�rnast
(49.6426°N, 11.9755°E)
Time: 19:52:46
(UTC+00:00)

Envisat - Pass Details

Date: 20 April 2021
Orbit: 764 x 766 km, 98.1° (Epoch: 06 May)

Event Time Altitude Azimuth Distance (km) Brightness Sun altitude
Rises 03:33:13 0° 27° (NNE) 3,243 7.2 -6.3°
Reaches altitude 10° 03:36:16 10° 46° (NE) 2,311 6.9 -5.9°
Maximum altitude 03:39:44 18° 89° (E) 1,803 6.1 -5.4°
Drops below altitude 10° 03:43:10 10° 132° (SE) 2,298 5.8 -4.8°
Sets 03:46:11 0° 151° (SSE) 3,219 6.3 -4.4°
